Meteo pe oră la Dabrowczyn

Astăzi, 17 Aprilie, Sâmbătă

Timp Temperatura Precipitaţii Vânt Presiune Umiditate
00:00 +4°C° 0 mm 2 m/s 755 mmHg 93%
01:00 +4°C° 0 mm 2 m/s 755 mmHg 95%
02:00 +4°C° 0 mm 2 m/s 755 mmHg 95%
03:00 +5°C° 0 mm 2 m/s 755 mmHg 96%
04:00 +4°C° 0 mm 3 m/s 755 mmHg 96%
05:00 +5°C° 0 mm 3 m/s 755 mmHg 95%
06:00 +5°C° 0 mm 3 m/s 755 mmHg 94%
07:00 +7°C° 0 mm 3 m/s 755 mmHg 93%
08:00 +7°C° 0 mm 4 m/s 755 mmHg 88%
09:00 +10°C° 0 mm 4 m/s 755 mmHg 84%
10:00 +11°C° 0 mm 4 m/s 755 mmHg 79%
11:00 +11°C° 0.2 mm 4 m/s 755 mmHg 78%
12:00 +11°C° 0.2 mm 4 m/s 755 mmHg 78%
13:00 +11°C° 0.2 mm 4 m/s 755 mmHg 77%
14:00 +11°C° 0.2 mm 4 m/s 755 mmHg 78%
15:00 +11°C° 0.2 mm 3 m/s 755 mmHg 78%
16:00 +11°C° 0.2 mm 3 m/s 755 mmHg 78%
17:00 +10°C° 0.3 mm 3 m/s 755 mmHg 83%
18:00 +10°C° 0.3 mm 3 m/s 755 mmHg 87%
19:00 +8°C° 0.3 mm 4 m/s 755 mmHg 91%
20:00 +8°C° 0 mm 3 m/s 755 mmHg 92%
21:00 +7°C° 0 mm 3 m/s 755 mmHg 93%
22:00 +7°C° 0 mm 3 m/s 756 mmHg 94%
23:00 +5°C° 0 mm 3 m/s 756 mmHg 94%

Mâine, 18 Aprilie, Duminică

Timp Temperatura Precipitaţii Vânt Presiune Umiditate
00:00 +5°C° 0 mm 3 m/s 756 mmHg 94%
01:00 +6°C° 0 mm 2 m/s 756 mmHg 94%
02:00 +6°C° 0 mm 2 m/s 756 mmHg 94%
03:00 +4°C° 0 mm 3 m/s 756 mmHg 95%
04:00 +4°C° 0 mm 3 m/s 755 mmHg 95%
05:00 +5°C° 0.1 mm 3 m/s 756 mmHg 94%
06:00 +7°C° 0.1 mm 3 m/s 756 mmHg 92%
07:00 +7°C° 0.1 mm 4 m/s 756 mmHg 91%
08:00 +8°C° 0 mm 4 m/s 756 mmHg 85%
09:00 +11°C° 0 mm 4 m/s 756 mmHg 78%
10:00 +12°C° 0 mm 5 m/s 756 mmHg 71%
11:00 +12°C° 0.1 mm 5 m/s 756 mmHg 73%
12:00 +12°C° 0.1 mm 5 m/s 756 mmHg 74%
13:00 +12°C° 0.1 mm 5 m/s 756 mmHg 76%
14:00 +12°C° 0.1 mm 5 m/s 755 mmHg 74%
15:00 +13°C° 0.1 mm 4 m/s 755 mmHg 72%
16:00 +13°C° 0.1 mm 4 m/s 755 mmHg 71%
17:00 +12°C° 0.6 mm 4 m/s 755 mmHg 77%
18:00 +11°C° 0.6 mm 3 m/s 755 mmHg 83%
19:00 +10°C° 0.6 mm 3 m/s 755 mmHg 90%
20:00 +10°C° 0.2 mm 3 m/s 755 mmHg 91%
21:00 +9°C° 0.2 mm 3 m/s 755 mmHg 92%
22:00 +9°C° 0.2 mm 3 m/s 755 mmHg 93%
23:00 +9°C° 0 mm 3 m/s 755 mmHg 93%

Poimâine, 19 Aprilie, Luni

Timp Temperatura Precipitaţii Vânt Presiune Umiditate
00:00 +9°C° 0 mm 3 m/s 755 mmHg 93%
01:00 +9°C° 0 mm 3 m/s 755 mmHg 92%
02:00 +9°C° 0 mm 3 m/s 755 mmHg 91%
03:00 +9°C° 0 mm 3 m/s 755 mmHg 90%
04:00 +8°C° 0 mm 3 m/s 755 mmHg 90%
05:00 +9°C° 0 mm 3 m/s 755 mmHg 89%
06:00 +9°C° 0 mm 3 m/s 755 mmHg 88%
07:00 +9°C° 0 mm 3 m/s 755 mmHg 87%
08:00 +10°C° 0 mm 3 m/s 755 mmHg 82%
09:00 +10°C° 0 mm 3 m/s 755 mmHg 78%
10:00 +11°C° 0 mm 4 m/s 755 mmHg 73%
11:00 +12°C° 0 mm 4 m/s 755 mmHg 65%
12:00 +13°C° 0 mm 5 m/s 755 mmHg 58%
13:00 +14°C° 0 mm 5 m/s 754 mmHg 50%
14:00 +14°C° 0 mm 5 m/s 754 mmHg 54%
15:00 +13°C° 0 mm 4 m/s 754 mmHg 58%
16:00 +12°C° 0 mm 4 m/s 754 mmHg 61%
17:00 +11°C° 0 mm 4 m/s 754 mmHg 65%
18:00 +10°C° 0 mm 4 m/s 754 mmHg 69%
19:00 +9°C° 0 mm 3 m/s 754 mmHg 73%
20:00 +9°C° 0 mm 3 m/s 754 mmHg 77%
21:00 +8°C° 0 mm 3 m/s 754 mmHg 80%
22:00 +7°C° 0 mm 3 m/s 754 mmHg 84%
23:00 +7°C° 0 mm 3 m/s 753 mmHg 87%

20 Aprilie, Marţi

Timp Temperatura Precipitaţii Vânt Presiune Umiditate
00:00 +6°C° 0 mm 2 m/s 753 mmHg 90%
01:00 +5°C° 0 mm 2 m/s 753 mmHg 93%
02:00 +5°C° 0 mm 2 m/s 753 mmHg 92%
03:00 +6°C° 0 mm 2 m/s 753 mmHg 91%
04:00 +6°C° 0 mm 2 m/s 752 mmHg 90%
05:00 +6°C° 0 mm 2 m/s 752 mmHg 87%
06:00 +6°C° 0 mm 2 m/s 752 mmHg 84%
07:00 +7°C° 0 mm 2 m/s 752 mmHg 81%
08:00 +8°C° 0 mm 2 m/s 752 mmHg 77%
09:00 +8°C° 0 mm 2 m/s 752 mmHg 73%
10:00 +9°C° 0 mm 2 m/s 752 mmHg 69%
11:00 +10°C° 0 mm 2 m/s 751 mmHg 65%
12:00 +12°C° 0 mm 2 m/s 751 mmHg 60%
13:00 +13°C° 0 mm 2 m/s 750 mmHg 55%
14:00 +12°C° 0.1 mm 3 m/s 750 mmHg 57%
15:00 +11°C° 0.1 mm 3 m/s 750 mmHg 59%
16:00 +11°C° 0.1 mm 3 m/s 749 mmHg 61%
17:00 +10°C° 0.1 mm 3 m/s 749 mmHg 66%
18:00 +9°C° 0.1 mm 3 m/s 749 mmHg 71%
19:00 +8°C° 0.1 mm 2 m/s 749 mmHg 76%
20:00 +7°C° 0 mm 2 m/s 749 mmHg 78%
21:00 +6°C° 0 mm 2 m/s 749 mmHg 80%
22:00 +6°C° 0 mm 2 m/s 749 mmHg 82%
23:00 +5°C° 0 mm 2 m/s 748 mmHg 83%

21 Aprilie, Miercuri

Timp Temperatura Precipitaţii Vânt Presiune Umiditate
00:00 +5°C° 0 mm 2 m/s 748 mmHg 83%
01:00 +4°C° 0 mm 2 m/s 748 mmHg 84%
02:00 +4°C° 0 mm 2 m/s 748 mmHg 85%
03:00 +4°C° 0 mm 2 m/s 748 mmHg 86%
04:00 +3°C° 0 mm 2 m/s 747 mmHg 87%
05:00 +3°C° 0 mm 3 m/s 747 mmHg 83%
06:00 +5°C° 0 mm 3 m/s 747 mmHg 78%
07:00 +7°C° 0 mm 3 m/s 747 mmHg 73%
08:00 +8°C° 0 mm 3 m/s 747 mmHg 67%
09:00 +10°C° 0 mm 3 m/s 747 mmHg 61%
10:00 +11°C° 0 mm 3 m/s 747 mmHg 54%
11:00 +12°C° 0 mm 3 m/s 747 mmHg 52%
12:00 +12°C° 0 mm 3 m/s 747 mmHg 50%
13:00 +12°C° 0 mm 3 m/s 747 mmHg 48%
14:00 +13°C° 0 mm 2 m/s 747 mmHg 48%
15:00 +13°C° 0 mm 2 m/s 747 mmHg 47%
16:00 +14°C° 0 mm 2 m/s 747 mmHg 47%
17:00 +12°C° 0 mm 1 m/s 747 mmHg 51%
18:00 +11°C° 0 mm 1 m/s 747 mmHg 56%
19:00 +10°C° 0 mm 1 m/s 747 mmHg 60%
20:00 +10°C° 0 mm 1 m/s 747 mmHg 63%
21:00 +8°C° 0 mm 2 m/s 747 mmHg 66%
22:00 +7°C° 0 mm 2 m/s 748 mmHg 68%
23:00 +7°C° 0 mm 2 m/s 748 mmHg 71%

22 Aprilie, Joi

Timp Temperatura Precipitaţii Vânt Presiune Umiditate
00:00 +6°C° 0 mm 2 m/s 748 mmHg 73%
01:00 +6°C° 0 mm 2 m/s 748 mmHg 75%
02:00 +6°C° 0 mm 2 m/s 748 mmHg 77%
03:00 +5°C° 0 mm 2 m/s 748 mmHg 79%
04:00 +4°C° 0 mm 3 m/s 748 mmHg 80%
05:00 +7°C° 0 mm 3 m/s 748 mmHg 78%
06:00 +8°C° 0 mm 3 m/s 748 mmHg 76%
07:00 +8°C° 0 mm 4 m/s 748 mmHg 73%
08:00 +11°C° 0 mm 4 m/s 748 mmHg 67%
09:00 +13°C° 0 mm 5 m/s 748 mmHg 61%
10:00 +15°C° 0 mm 5 m/s 748 mmHg 55%
11:00 +15°C° 0 mm 5 m/s 748 mmHg 53%
12:00 +16°C° 0 mm 5 m/s 748 mmHg 51%
13:00 +17°C° 0 mm 5 m/s 748 mmHg 49%
14:00 +16°C° 0.3 mm 5 m/s 748 mmHg 55%
15:00 +16°C° 0.3 mm 5 m/s 748 mmHg 60%
16:00 +15°C° 0.3 mm 5 m/s 748 mmHg 66%
17:00 +12°C° 0.5 mm 5 m/s 749 mmHg 74%
18:00 +8°C° 0.5 mm 5 m/s 750 mmHg 81%
19:00 +6°C° 0.5 mm 5 m/s 750 mmHg 89%
20:00 +5°C° 0 mm 5 m/s 750 mmHg 89%
21:00 +4°C° 0 mm 4 m/s 751 mmHg 90%
22:00 +4°C° 0 mm 4 m/s 751 mmHg 90%
23:00 +3°C° 2.7 mm 4 m/s 751 mmHg 92%
Arată mai mult

Formular de consimțământ

Meteoprog și furnizorii noștri de servicii pot stoca și accesa date personale, precum cookies, identificatori de dispozitiv sau alte tehnologii similare pe dispozitivul dumneavoastră și procesa astfel de date pentru a personaliza conținutul și reclamele, dar și pentru a oferi caracteristici de social media și pentru a analiza traficul.

  • Stocarea și/sau accesarea informațiilor pe dispozitivul dumneavoastră

    Cookies, identificatori de dispozitiv sau alte informații pot fi stocate sau accesate pe dispozitiv în scopurile indicate mai sus.

  • Reclame și conținut personalizat, evaluarea reclamelor și a conținutului, informații despre audiențe și dezvoltarea produselor

    Reclamele și conținutul pot fi personalizate pe baza unui profil. Pot fi adăugate date suplimentare pentru a personaliza mai bine reclamele și conținutul. Performanța reclamelor și conținutului poate fi măsurată. Pot fi obținute informații despre utilizatorii care au văzut reclamele și conținutul. Aceste date pot fi utilizate pentru a dezvolta sau îmbunătăți experiența utilizatorilor, sistemele și software-ul.

Dând clic pe ‘Sunt de acord’, permiteți utilizarea cookie-urilor menționate, a identificatorilor de dispozitiv, balizelor web sau altor tehnologii similare. Setările pot fi modificate din browser-ul dispozitivului dumneavoastră.

În anumite scopuri, interesele legitime pot prima asupra consimțământului. Puteți citi mai multe informații în acest sens în Politica privind Confidențialitatea Datelor și Cookie.